TimeMST,TemperatureF,Dew PointF,Humidity,Sea Level PressureIn,VisibilityMPH,Wind Direction,Wind SpeedMPH,Gust SpeedMPH,PrecipitationIn,Events,Conditions,WindDirDegrees,DateUTC
12:53 AM,35.1,17.1,48,30.30,10.0,Calm,Calm,-,N/A,,Clear,0,2014-01-16 07:53:00
1:53 AM,33.1,17.1,52,30.32,10.0,Calm,Calm,-,N/A,,Clear,0,2014-01-16 08:53:00
2:53 AM,32.0,16.0,52,30.33,10.0,SW,3.5,-,N/A,,Clear,230,2014-01-16 09:53:00
3:53 AM,32.0,17.1,54,30.31,10.0,SW,4.6,-,N/A,,Clear,230,2014-01-16 10:53:00
4:45 AM,32.0,17.1,54,30.33,2.5,Calm,Calm,-,N/A,,Haze,0,2014-01-16 11:45:00
4:53 AM,32.0,17.1,54,30.31,8.0,Calm,Calm,-,N/A,,Clear,0,2014-01-16 11:53:00
5:53 AM,30.9,16.0,54,30.34,7.0,Calm,Calm,-,N/A,,Clear,0,2014-01-16 12:53:00
6:29 AM,32.0,17.1,54,30.33,1.5,West,3.5,-,N/A,,Haze,260,2014-01-16 13:29:00
6:38 AM,32.0,17.1,54,30.34,0.8,WSW,4.6,-,N/A,,Haze,250,2014-01-16 13:38:00
6:43 AM,30.9,16.0,54,30.34,2.0,West,3.5,-,N/A,,Haze,260,2014-01-16 13:43:00
6:53 AM,30.9,16.0,54,30.36,5.0,WSW,4.6,-,N/A,,Haze,240,2014-01-16 13:53:00
7:53 AM,30.9,16.0,54,30.37,10.0,Calm,Calm,-,N/A,,Clear,0,2014-01-16 14:53:00
8:53 AM,37.0,17.1,44,30.39,10.0,Calm,Calm,-,N/A,,Clear,0,2014-01-16 15:53:00
9:53 AM,39.0,17.1,41,30.42,10.0,Calm,Calm,-,N/A,,Clear,0,2014-01-16 16:53:00
10:53 AM,42.1,19.9,41,30.40,10.0,Calm,Calm,-,N/A,,Clear,0,2014-01-16 17:53:00
11:53 AM,46.0,19.0,34,30.36,10.0,Variable,4.6,-,N/A,,Clear,0,2014-01-16 18:53:00
12:53 PM,48.0,19.9,33,30.32,10.0,Calm,Calm,-,N/A,,Clear,0,2014-01-16 19:53:00
1:53 PM,50.0,19.9,31,30.30,10.0,ENE,4.6,-,N/A,,Clear,60,2014-01-16 20:53:00
2:53 PM,52.0,18.0,26,30.29,10.0,ENE,4.6,-,N/A,,Clear,60,2014-01-16 21:53:00
3:53 PM,52.0,17.1,25,30.28,10.0,Calm,Calm,-,N/A,,Clear,0,2014-01-16 22:53:00
4:53 PM,50.0,15.1,25,30.29,10.0,NNW,3.5,-,N/A,,Clear,340,2014-01-16 23:53:00
5:53 PM,46.9,18.0,32,30.31,10.0,Calm,Calm,-,N/A,,Clear,0,2014-01-17 00:53:00
6:53 PM,42.1,18.0,38,30.32,8.0,WSW,3.5,-,N/A,,Clear,250,2014-01-17 01:53:00
7:53 PM,39.0,16.0,39,30.34,10.0,Calm,Calm,-,N/A,,Clear,0,2014-01-17 02:53:00
8:53 PM,39.0,16.0,39,30.33,6.0,Calm,Calm,-,N/A,,Haze,0,2014-01-17 03:53:00
9:53 PM,37.0,16.0,42,30.35,9.0,SSE,3.5,-,N/A,,Clear,160,2014-01-17 04:53:00
10:53 PM,37.9,16.0,41,30.34,10.0,SSE,3.5,-,N/A,,Clear,150,2014-01-17 05:53:00
11:53 PM,37.9,15.1,39,30.33,9.0,West,4.6,-,N/A,,Clear,260,2014-01-17 06:53:00